| time (UTC) | temp C | wind direction | speed KPH | gust KPH | rain 1hr cm | rain 24hr cm | rain mn cm | humidity % | barometer mb |
| 20260510230105 | 22 | 59 | 0.0 | 3.2 | 0.00 | 0.15 | 0.00 | 61 | 1014.7 |
| 20260510230000 | 22 | 350 | 0.0 | 3.2 | 0.00 | 0.15 | 0.00 | 60 | 1014.7 |
| 20260510224559 | 22 | 360 | 0.0 | 6.4 | 0.00 | 0.15 | 0.00 | 67 | 1014.5 |
| 20260510223057 | 22 | 217 | 0.0 | 8.0 | 0.00 | 0.15 | 0.00 | 61 | 1014.5 |
| 20260510221526 | 22 | 100 | 1.6 | 6.4 | 0.00 | 0.15 | 0.00 | 61 | 1014.5 |
| 20260510220024 | 22 | 77 | 0.0 | 8.0 | 0.00 | 0.15 | 0.00 | 62 | 1014.5 |
| 20260510214521 | 22 | 281 | 1.6 | 4.8 | 0.00 | 0.15 | 0.00 | 64 | 1014.3 |
| 20260510213018 | 22 | 316 | 1.6 | 11.3 | 0.00 | 0.15 | 0.00 | 62 | 1014.0 |
| 20260510211516 | 23 | 27 | 3.2 | 9.7 | 0.00 | 0.15 | 0.00 | 64 | 1013.9 |
| 20260510210014 | 22 | 49 | 1.6 | 6.4 | 0.00 | 0.15 | 0.00 | 66 | 1013.7 |
| 20260510204515 | 23 | 246 | 0.0 | 9.7 | 0.00 | 0.15 | 0.00 | 64 | 1013.7 |
| 20260510203008 | 22 | 177 | 3.2 | 9.7 | 0.00 | 0.15 | 0.00 | 65 | 1013.7 |
| 20260510201505 | 22 | 346 | 1.6 | 9.7 | 0.00 | 0.15 | 0.00 | 69 | 1013.8 |
| 20260510200003 | 22 | 300 | 0.0 | 6.4 | 0.03 | 0.15 | 0.00 | 73 | 1013.9 |
| 20260510194532 | 22 | 333 | 0.0 | 3.2 | 0.15 | 0.15 | 0.15 | 76 | 1013.9 |
| 20260510193032 | 22 | 293 | 1.6 | 4.8 | 0.15 | 0.15 | 0.15 | 82 | 1014.0 |
| 20260510191527 | 22 | 208 | 1.6 | 4.8 | 0.15 | 0.15 | 0.15 | 78 | 1014.1 |
| 20260510190026 | 22 | 279 | 3.2 | 11.3 | 0.13 | 0.13 | 0.13 | 78 | 1014.2 |
| 20260510184522 | 23 | 271 | 4.8 | 9.7 | 0.00 | 0.00 | 0.00 | 67 | 1014.6 |
| 20260510183021 | 24 | 280 | 4.8 | 11.3 | 0.00 | 0.00 | 0.00 | 57 | 1014.2 |
| 20260510181529 | 24 | 269 | 3.2 | 16.1 | 0.00 | 0.00 | 0.00 | 53 | 1014.1 |
| 20260510180017 | 25 | 344 | 3.2 | 19.3 | 0.00 | 0.00 | 0.00 | 53 | 1014.0 |
| 20260510174516 | 25 | 224 | 3.2 | 14.5 | 0.00 | 0.00 | 0.00 | 52 | 1014.1 |
| 20260510173016 | 25 | 267 | 4.8 | 16.1 | 0.00 | 0.00 | 0.00 | 51 | 1014.0 |
| 20260510171513 | 25 | 281 | 9.7 | 14.5 | 0.00 | 0.00 | 0.00 | 52 | 1014.1 |
| 20260510170009 | 25 | 271 | 11.3 | 17.7 | 0.00 | 0.00 | 0.00 | 54 | 1014.1 |
| 20260510164514 | 23 | 238 | 3.2 | 6.4 | 0.00 | 0.00 | 0.00 | 58 | 1014.1 |
| 20260510163008 | 23 | 290 | 1.6 | 12.9 | 0.00 | 0.00 | 0.00 | 59 | 1014.1 |
| 20260510161505 | 23 | 294 | 9.7 | 17.7 | 0.00 | 0.00 | 0.00 | 55 | 1014.3 |
| 20260510160005 | 25 | 257 | 14.5 | 25.7 | 0.00 | 0.00 | 0.00 | 52 | 1014.1 |
| 20260510154502 | 24 | 321 | 4.8 | 19.3 | 0.00 | 0.00 | 0.00 | 55 | 1014.0 |
| 20260510153059 | 23 | 260 | 4.8 | 12.9 | 0.00 | 0.00 | 0.00 | 55 | 1014.1 |
| 20260510151603 | 23 | 282 | 6.4 | 20.9 | 0.00 | 0.00 | 0.00 | 54 | 1014.1 |
| 20260510150104 | 24 | 234 | 12.9 | 20.9 | 0.00 | 0.00 | 0.00 | 53 | 1014.1 |
| 20260510144604 | 23 | 237 | 6.4 | 17.7 | 0.00 | 0.00 | 0.00 | 55 | 1013.9 |
| 20260510143059 | 23 | 265 | 11.3 | 19.3 | 0.00 | 0.00 | 0.00 | 56 | 1013.8 |
| 20260510141549 | 22 | 270 | 11.3 | 19.3 | 0.00 | 0.00 | 0.00 | 59 | 1014.2 |
| 20260510140048 | 22 | 263 | 6.4 | 16.1 | 0.00 | 0.00 | 0.00 | 60 | 1014.0 |
| 20260510134547 | 21 | 222 | 3.2 | 9.7 | 0.00 | 0.00 | 0.00 | 63 | 1014.0 |
| 20260510133045 | 20 | 192 | 1.6 | 12.9 | 0.00 | 0.00 | 0.00 | 67 | 1014.1 |
| 20260510131532 | 18 | 270 | 3.2 | 6.4 | 0.00 | 0.00 | 0.00 | 74 | 1014.1 |
| 20260510130013 | 18 | 273 | 0.0 | 14.5 | 0.00 | 0.00 | 0.00 | 73 | 1014.0 |
| 20260510124610 | 16 | 298 | 0.0 | 3.2 | 0.00 | 0.00 | 0.00 | 84 | 1014.0 |
| 20260510123009 | 15 | 47 | 1.6 | 4.8 | 0.00 | 0.00 | 0.00 | 87 | 1013.9 |
| 20260510121505 | 13 | 46 | 0.0 | 4.8 | 0.00 | 0.00 | 0.00 | 88 | 1013.6 |
| 20260510120005 | 12 | 63 | 0.0 | 1.6 | 0.00 | 0.00 | 0.00 | 90 | 1013.7 |
| 20260510114504 | 11 | 63 | 0.0 | 3.2 | 0.00 | 0.00 | 0.00 | 91 | 1013.6 |
| 20260510113115 | 11 | 350 | 0.0 | 1.6 | 0.00 | 0.00 | 0.00 | 91 | 1013.3 |
| 20260510111559 | 10 | 284 | 0.0 | 1.6 | 0.00 | 0.00 | 0.00 | 91 | 1013.3 |
| 20260510110058 | 10 | 284 | 0.0 | 1.6 | 0.00 | 0.00 | 0.00 | 91 | 1012.8 |
| 20260510104554 | 10 | 284 | 0.0 | 0.0 | 0.00 | 0.00 | 0.00 | 91 | 1012.7 |
| 20260510103053 | 9 | 284 | 0.0 | 1.6 | 0.00 | 0.00 | 0.00 | 91 | 1012.6 |
| 20260510101556 | 9 | 284 | 0.0 | 1.6 | 0.00 | 0.00 | 0.00 | 91 | 1012.3 |
| 20260510100051 | 10 | 284 | 0.0 | 1.6 | 0.00 | 0.00 | 0.00 | 90 | 1012.4 |
| 20260510094550 | 10 | 284 | 0.0 | 1.6 | 0.00 | 0.00 | 0.00 | 90 | 1012.2 |
| 20260510093045 | 10 | 284 | 0.0 | 3.2 | 0.00 | 0.00 | 0.00 | 90 | 1011.8 |
| 20260510091544 | 10 | 284 | 0.0 | 1.6 | 0.00 | 0.00 | 0.00 | 90 | 1011.8 |
| 20260510090040 | 10 | 284 | 0.0 | 1.6 | 0.00 | 0.00 | 0.00 | 90 | 1011.7 |
| 20260510084541 | 10 | 284 | 0.0 | 3.2 | 0.00 | 0.00 | 0.00 | 90 | 1011.6 |
| 20260510083035 | 10 | 284 | 0.0 | 3.2 | 0.00 | 0.00 | 0.00 | 90 | 1011.3 |
| 20260510081533 | 10 | 227 | 0.0 | 3.2 | 0.00 | 0.00 | 0.00 | 90 | 1011.2 |
| 20260510080034 | 10 | 200 | 0.0 | 1.6 | 0.00 | 0.00 | 0.00 | 90 | 1011.2 |
| 20260510074532 | 10 | 198 | 0.0 | 1.6 | 0.00 | 0.00 | 0.00 | 90 | 1011.0 |
| 20260510073011 | 10 | 198 | 0.0 | 1.6 | 0.00 | 0.00 | 0.00 | 90 | 1010.9 |
| 20260510071509 | 11 | 141 | 0.0 | 1.6 | 0.00 | 0.00 | 0.00 | 90 | 1010.9 |
| 20260510070009 | 11 | 127 | 0.0 | 4.8 | 0.00 | 0.00 | 0.00 | 90 | 1010.9 |
| 20260510064520 | 11 | 290 | 0.0 | 4.8 | 0.00 | 0.00 | 0.00 | 90 | 1010.9 |
| 20260510063003 | 11 | 255 | 0.0 | 1.6 | 0.00 | 0.00 | 0.00 | 89 | 1011.0 |
| 20260510061501 | 11 | 279 | 0.0 | 3.2 | 0.00 | 0.00 | 0.00 | 89 | 1011.1 |
| 20260510060059 | 11 | 279 | 0.0 | 3.2 | 0.00 | 0.00 | 0.00 | 88 | 1011.0 |
| 20260510054604 | 11 | 279 | 0.0 | 1.6 | 0.00 | 0.00 | 0.00 | 88 | 1011.1 |
| 20260510053055 | 12 | 279 | 0.0 | 1.6 | 0.00 | 0.00 | 0.00 | 88 | 1011.1 |
| 20260510051557 | 12 | 279 | 0.0 | 1.6 | 0.00 | 0.00 | 0.00 | 88 | 1011.2 |
| 20260510050052 | 12 | 279 | 0.0 | 1.6 | 0.00 | 0.00 | 0.00 | 87 | 1011.2 |
| 20260510044550 | 12 | 279 | 0.0 | 1.6 | 0.00 | 0.00 | 0.00 | 87 | 1011.4 |
| 20260510043046 | 12 | 279 | 0.0 | 1.6 | 0.00 | 0.00 | 0.00 | 86 | 1011.5 |
| 20260510041544 | 13 | 279 | 0.0 | 0.0 | 0.00 | 0.00 | 0.00 | 86 | 1011.5 |
| 20260510040046 | 13 | 279 | 0.0 | 1.6 | 0.00 | 0.00 | 0.00 | 86 | 1011.5 |
| 20260510034551 | 13 | 279 | 0.0 | 1.6 | 0.00 | 0.00 | 0.00 | 85 | 1011.5 |
| 20260510033037 | 13 | 279 | 0.0 | 1.6 | 0.00 | 0.00 | 0.00 | 84 | 1011.4 |
| 20260510031534 | 14 | 279 | 0.0 | 1.6 | 0.00 | 0.00 | 0.00 | 84 | 1011.3 |
| 20260510030030 | 15 | 279 | 0.0 | 1.6 | 0.00 | 0.00 | 0.00 | 83 | 1011.3 |
| 20260510024527 | 15 | 279 | 0.0 | 1.6 | 0.00 | 0.00 | 0.00 | 81 | 1011.1 |
| 20260510023023 | 15 | 277 | 0.0 | 3.2 | 0.00 | 0.00 | 0.00 | 80 | 1010.9 |
| 20260510021525 | 16 | 277 | 0.0 | 3.2 | 0.00 | 0.00 | 0.00 | 78 | 1010.6 |
| 20260510020019 | 16 | 250 | 1.6 | 3.2 | 0.00 | 0.00 | 0.00 | 76 | 1010.4 |
| 20260510014513 | 17 | 250 | 0.0 | 1.6 | 0.00 | 0.00 | 0.00 | 74 | 1010.2 |
| 20260510013004 | 17 | 251 | 0.0 | 3.2 | 0.00 | 0.00 | 0.00 | 72 | 1010.0 |
| 20260510011600 | 18 | 250 | 0.0 | 3.2 | 0.00 | 0.00 | 0.00 | 70 | 1009.7 |
| 20260510010056 | 18 | 251 | 0.0 | 1.6 | 0.00 | 0.00 | 0.00 | 67 | 1009.6 |
| 20260510004552 | 19 | 251 | 0.0 | 3.2 | 0.00 | 0.00 | 0.00 | 66 | 1009.4 |
| 20260510003102 | 20 | 253 | 1.6 | 11.3 | 0.00 | 0.00 | 0.00 | 64 | 1009.1 |
| 20260510001545 | 20 | 230 | 1.6 | 8.0 | 0.00 | 0.00 | 0.00 | 63 | 1008.9 |
| 20260510000043 | 20 | 240 | 4.8 | 16.1 | 0.00 | 0.00 | 0.00 | 62 | 1008.8 |
| 20260509234539 | 21 | 230 | 6.4 | 14.5 | 0.00 | 0.00 | 0.00 | 60 | 1008.8 |
| 20260509233029 | 21 | 246 | 4.8 | 14.5 | 0.00 | 0.00 | 0.00 | 59 | 1008.6 |
| 20260509231528 | 21 | 246 | 4.8 | 16.1 | 0.00 | 0.00 | 0.00 | 57 | 1008.7 |